• In Schweiz
  • Länderverzeichnis
  • Für 7 Tage
  • Wassertemperatur
  • Satellitenkarten
  • Wetterkarte
  • Widgets
  • user-avatar
    Anmelden

    Stündliche Wetter Serhii

    Heute, 24 September, Montag

    Zeit Temperatur Niederschläge Wind Luftdruck Luftfeuchtigkeit
    00:00 +8°C° 0 mm 3 m/S 676 mmHg 67%
    01:00 +9°C° 0 mm 3 m/S 676 mmHg 67%
    02:00 +9°C° 0 mm 2 m/S 674 mmHg 71%
    03:00 +10°C° 0.1 mm 3 m/S 674 mmHg 72%
    04:00 +12°C° 0.1 mm 4 m/S 674 mmHg 74%
    05:00 +13°C° 0.1 mm 5 m/S 674 mmHg 75%
    06:00 +13°C° 0.1 mm 4 m/S 674 mmHg 77%
    07:00 +12°C° 0.1 mm 4 m/S 674 mmHg 79%
    08:00 +12°C° 0 mm 3 m/S 674 mmHg 84%
    09:00 +11°C° 0.5 mm 4 m/S 674 mmHg 85%
    10:00 +10°C° 0.5 mm 4 m/S 675 mmHg 86%
    11:00 +8°C° 0.5 mm 4 m/S 676 mmHg 88%
    12:00 +8°C° 0.4 mm 4 m/S 677 mmHg 86%
    13:00 +7°C° 0.4 mm 4 m/S 678 mmHg 85%
    14:00 +7°C° 0 mm 4 m/S 678 mmHg 82%
    15:00 +7°C° 0.1 mm 4 m/S 679 mmHg 80%
    16:00 +6°C° 0.1 mm 4 m/S 679 mmHg 79%
    17:00 +6°C° 0.1 mm 4 m/S 679 mmHg 78%
    18:00 +4°C° 0 mm 4 m/S 679 mmHg 80%
    19:00 +3°C° 0 mm 3 m/S 679 mmHg 83%
    20:00 +2°C° 0 mm 3 m/S 679 mmHg 86%
    21:00 +1°C° 0 mm 3 m/S 680 mmHg 87%
    22:00 +1°C° 0 mm 3 m/S 680 mmHg 87%
    23:00 0°C° 0 mm 3 m/S 680 mmHg 87%

    Morgen, 25 September, Dienstag

    Zeit Temperatur Niederschläge Wind Luftdruck Luftfeuchtigkeit
    00:00 0°C° 0 mm 3 m/S 680 mmHg 87%
    01:00 0°C° 0 mm 3 m/S 681 mmHg 87%
    02:00 +1°C° 0 mm 2 m/S 681 mmHg 87%
    03:00 0°C° 0.1 mm 3 m/S 681 mmHg 87%
    04:00 0°C° 0.1 mm 3 m/S 681 mmHg 87%
    05:00 0°C° 0.1 mm 3 m/S 682 mmHg 87%
    06:00 +1°C° 0.6 mm 3 m/S 682 mmHg 86%
    07:00 +1°C° 0.6 mm 3 m/S 683 mmHg 85%
    08:00 +1°C° 0.6 mm 3 m/S 683 mmHg 85%
    09:00 +1°C° 0.3 mm 4 m/S 684 mmHg 78%
    10:00 +3°C° 0.3 mm 4 m/S 684 mmHg 72%
    11:00 +3°C° 0.3 mm 5 m/S 685 mmHg 66%
    12:00 +3°C° 0.2 mm 5 m/S 685 mmHg 64%
    13:00 +5°C° 0.2 mm 5 m/S 685 mmHg 62%
    14:00 +5°C° 0.2 mm 5 m/S 686 mmHg 60%
    15:00 +5°C° 0.1 mm 5 m/S 686 mmHg 62%
    16:00 +5°C° 0.1 mm 4 m/S 686 mmHg 63%
    17:00 +4°C° 0.1 mm 4 m/S 686 mmHg 65%
    18:00 +3°C° 0 mm 3 m/S 686 mmHg 70%
    19:00 +1°C° 0 mm 3 m/S 687 mmHg 76%
    20:00 +1°C° 0 mm 2 m/S 687 mmHg 81%
    21:00 +1°C° 0 mm 2 m/S 688 mmHg 82%
    22:00 +1°C° 0 mm 2 m/S 688 mmHg 84%
    23:00 +1°C° 0 mm 2 m/S 688 mmHg 85%

    übermorgen, 26 September, Mittwoch

    Zeit Temperatur Niederschläge Wind Luftdruck Luftfeuchtigkeit
    00:00 +1°C° 0.1 mm 2 m/S 689 mmHg 86%
    01:00 -1°C° 0.1 mm 2 m/S 689 mmHg 87%
    02:00 -1°C° 0.1 mm 2 m/S 689 mmHg 88%
    03:00 -1°C° 0 mm 2 m/S 689 mmHg 90%
    04:00 -1°C° 0 mm 2 m/S 689 mmHg 91%
    05:00 -2°C° 0 mm 2 m/S 689 mmHg 92%
    06:00 -1°C° 0 mm 2 m/S 690 mmHg 87%
    07:00 +1°C° 0 mm 2 m/S 690 mmHg 82%
    08:00 +2°C° 0 mm 2 m/S 691 mmHg 78%
    09:00 +2°C° 0 mm 3 m/S 691 mmHg 71%
    10:00 +3°C° 0 mm 3 m/S 691 mmHg 65%
    11:00 +5°C° 0 mm 3 m/S 692 mmHg 58%
    12:00 +5°C° 0 mm 3 m/S 691 mmHg 56%
    13:00 +7°C° 0 mm 2 m/S 691 mmHg 53%
    14:00 +8°C° 0 mm 2 m/S 691 mmHg 50%
    15:00 +7°C° 0 mm 2 m/S 691 mmHg 52%
    16:00 +7°C° 0 mm 2 m/S 690 mmHg 55%
    17:00 +8°C° 0 mm 1 m/S 690 mmHg 57%
    18:00 +6°C° 0 mm 1 m/S 690 mmHg 64%
    19:00 +4°C° 0 mm 1 m/S 690 mmHg 71%
    20:00 +2°C° 0 mm 1 m/S 689 mmHg 78%
    21:00 +2°C° 0 mm 1 m/S 689 mmHg 78%
    22:00 +1°C° 0 mm 1 m/S 689 mmHg 79%
    23:00 +1°C° 0 mm 1 m/S 689 mmHg 79%

    27 September, Donnerstag

    Zeit Temperatur Niederschläge Wind Luftdruck Luftfeuchtigkeit
    00:00 +1°C° 0 mm 1 m/S 689 mmHg 79%
    01:00 +1°C° 0 mm 1 m/S 689 mmHg 78%
    02:00 -1°C° 0 mm 2 m/S 688 mmHg 77%
    03:00 -1°C° 0 mm 2 m/S 688 mmHg 76%
    04:00 -1°C° 0 mm 2 m/S 688 mmHg 75%
    05:00 -1°C° 0 mm 2 m/S 687 mmHg 74%
    06:00 +2°C° 0 mm 2 m/S 687 mmHg 69%
    07:00 +3°C° 0 mm 2 m/S 688 mmHg 64%
    08:00 +5°C° 0 mm 2 m/S 688 mmHg 59%
    09:00 +7°C° 0 mm 2 m/S 688 mmHg 56%
    10:00 +9°C° 0 mm 2 m/S 688 mmHg 52%
    11:00 +10°C° 0 mm 2 m/S 688 mmHg 48%
    12:00 +13°C° 0 mm 2 m/S 688 mmHg 47%
    13:00 +14°C° 0 mm 2 m/S 688 mmHg 45%
    14:00 +15°C° 0 mm 2 m/S 688 mmHg 44%
    15:00 +14°C° 0 mm 2 m/S 687 mmHg 49%
    16:00 +14°C° 0 mm 2 m/S 687 mmHg 55%
    17:00 +13°C° 0 mm 1 m/S 686 mmHg 60%
    18:00 +11°C° 0 mm 1 m/S 686 mmHg 66%
    19:00 +9°C° 0 mm 1 m/S 686 mmHg 71%
    20:00 +6°C° 0 mm 1 m/S 686 mmHg 77%
    21:00 +6°C° 0 mm 1 m/S 686 mmHg 77%
    22:00 +6°C° 0 mm 1 m/S 686 mmHg 78%
    23:00 +6°C° 0 mm 1 m/S 686 mmHg 78%

    28 September, Freitag

    Zeit Temperatur Niederschläge Wind Luftdruck Luftfeuchtigkeit
    00:00 +6°C° 0 mm 1 m/S 685 mmHg 80%
    01:00 +6°C° 0 mm 1 m/S 685 mmHg 82%
    02:00 +6°C° 0 mm 1 m/S 685 mmHg 84%
    03:00 +6°C° 0 mm 1 m/S 684 mmHg 86%
    04:00 +6°C° 0 mm 1 m/S 684 mmHg 88%
    05:00 +6°C° 0 mm 1 m/S 684 mmHg 89%
    06:00 +7°C° 0 mm 1 m/S 684 mmHg 85%
    07:00 +8°C° 0 mm 1 m/S 684 mmHg 81%
    08:00 +10°C° 0 mm 1 m/S 684 mmHg 76%
    09:00 +12°C° 0 mm 1 m/S 684 mmHg 68%
    10:00 +15°C° 0 mm 1 m/S 685 mmHg 60%
    11:00 +19°C° 0 mm 1 m/S 685 mmHg 52%
    12:00 +19°C° 0 mm 1 m/S 685 mmHg 50%
    13:00 +20°C° 0 mm 1 m/S 684 mmHg 48%
    14:00 +20°C° 0 mm 1 m/S 684 mmHg 46%
    15:00 +19°C° 0 mm 1 m/S 683 mmHg 52%
    16:00 +18°C° 0 mm 1 m/S 683 mmHg 58%
    17:00 +16°C° 0 mm 1 m/S 682 mmHg 63%
    18:00 +14°C° 0 mm 1 m/S 682 mmHg 70%
    19:00 +12°C° 0 mm 1 m/S 681 mmHg 77%
    20:00 +10°C° 0 mm 1 m/S 681 mmHg 84%
    21:00 +10°C° 0 mm 1 m/S 681 mmHg 85%
    22:00 +9°C° 0 mm 1 m/S 681 mmHg 86%
    23:00 +9°C° 0 mm 1 m/S 681 mmHg 87%

    29 September, Samstag

    Zeit Temperatur Niederschläge Wind Luftdruck Luftfeuchtigkeit
    00:00 +9°C° 0 mm 1 m/S 680 mmHg 88%
    01:00 +9°C° 0 mm 1 m/S 680 mmHg 88%
    02:00 +9°C° 0 mm 1 m/S 680 mmHg 88%
    03:00 +8°C° 0 mm 1 m/S 680 mmHg 88%
    04:00 +8°C° 0 mm 1 m/S 679 mmHg 88%
    05:00 +8°C° 0 mm 1 m/S 679 mmHg 88%
    06:00 +9°C° 0 mm 1 m/S 679 mmHg 84%
    07:00 +10°C° 0 mm 1 m/S 679 mmHg 80%
    08:00 +11°C° 0 mm 1 m/S 680 mmHg 76%
    09:00 +13°C° 0.1 mm 1 m/S 680 mmHg 71%
    10:00 +14°C° 0.1 mm 2 m/S 680 mmHg 67%
    11:00 +15°C° 0.1 mm 2 m/S 680 mmHg 62%
    12:00 +14°C° 0.3 mm 2 m/S 680 mmHg 69%
    13:00 +12°C° 0.3 mm 3 m/S 680 mmHg 75%
    14:00 +11°C° 0.3 mm 3 m/S 680 mmHg 82%
    15:00 +10°C° 0.4 mm 3 m/S 680 mmHg 86%
    16:00 +9°C° 0.4 mm 3 m/S 680 mmHg 89%
    17:00 +8°C° 0.4 mm 3 m/S 680 mmHg 93%
    18:00 +7°C° 0.2 mm 3 m/S 680 mmHg 93%
    19:00 +6°C° 0.2 mm 2 m/S 681 mmHg 94%
    20:00 +6°C° 0.2 mm 2 m/S 681 mmHg 94%
    21:00 +5°C° 0 mm 2 m/S 681 mmHg 94%
    22:00 +5°C° 0 mm 2 m/S 682 mmHg 94%
    23:00 +6°C° 0 mm 1 m/S 682 mmHg 93%
    Mehr zeigen